Regional Weather Roundup
Issued by NWS Grand Forks, ND

Home | Current Version | Previous Version | Text Only | Print | Product List | Glossary Off
Versions: 1 2 3 4 5 6 7 8 9 10 11 12 13 14 15 16 17 18 19 20 21 22 23 24 25 26 27 28 29 30 31 32 33 34 35 36 37 38 39 40 41 42 43 44 45 46 47 48 49 50

000
ASUS43 KFGF 230031
RWRFGF
PRAIRIE TO PINES  WEATHER ROUNDUP
NATIONAL WEATHER SERVICE EASTERN NORTH DAKOTA/GRAND FORKS ND
600 PM CST MON DEC 22 2014

 **SATELLITE DATA USED TO AUGMENT SKY COVER AT AUTOMATED STATIONS**
 *****  WEATHER ACROSS EASTERN NORTH DAKOTA  *****

CITY           SKY/WX    TMP DP  RH WIND       PRES   REMARKS
GRAND FORKS    LGT RAIN  36  35  96 NE7       29.64R
6HR MIN TEMP:  36; 6HR MAX TEMP:  37; 6HR PCP:  0.09;

GRAND FRKS AFB LGT RAIN  36  36 100 NE7       29.65R FOG
DEVILS LAKE    CLOUDY    34  32  93 NE13      29.64R WCI  25
6HR MIN TEMP:  34; 6HR MAX TEMP:  34;

FARGO          LGT RAIN  38  35  89 E12       29.59R
WAHPETON ARPT  CLOUDY    34  32  93 E9        29.57R
$$

 ***** WEATHER ACROSS CENTRAL AND WESTERN NORTH DAKOTA  *****

CITY           SKY/WX    TMP DP  RH WIND       PRES   REMARKS
BISMARCK       CLOUDY    31  30  96 N21G28    29.64R WCI  18
6HR MIN TEMP:  29; 6HR MAX TEMP:  32;

MINOT          CLOUDY    29  26  89 NW15      29.70R WCI  18
6HR MIN TEMP:  28; 6HR MAX TEMP:  29;

JAMESTOWN      LGT RAIN  34  33  96 NE10      29.56R FOG
6HR MIN TEMP:  33; 6HR MAX TEMP:  34; 6HR PCP:  0.02;

MINOT AFB      FRZ RAIN  28  28 100 N14       29.71R WCI  17
GARRISON         N/A     27  26  96 N15       29.68R WCI  15
WILLISTON      CLOUDY    27  22  81 N16       29.78R WCI  15
6HR MIN TEMP:  26; 6HR MAX TEMP:  28;

DICKINSON      LGT SNOW  25  21  85 NW17      29.68R FOG     WCI  12
6HR MIN TEMP:  25; 6HR MAX TEMP:  27; 6HR PCP:  0.02;

HETTINGER      LGT SNOW  24  20  84 NW22G28   29.67R FOG     WCI   9
6HR MIN TEMP:  24; 6HR MAX TEMP:  28; 6HR PCP: TRACE;

$$

 *****  OTHER AIRPORT OBSERVATIONS IN OUR AREA  *****

CITY           SKY/WX    TMP DP  RH WIND       PRES   REMARKS
WALHALLA         N/A     32  32 100 N9        29.71R FOG     WCI  24
GRAFTON AIRPOR NOT AVBL
VALLEY CITY AR CLOUDY    36  36 100 E9        29.58R FOG
CANDO          CLOUDY    32  32 100 NE14      29.68R WCI  22
CAVALIER APRT  MIX PCPN  34  34 100 N7        29.70R VSB 3/4
GWINNER        CLOUDY    36  36 100 E13       29.55R
SHEYENNE NWR     N/A     36  35  97 E9        29.95
ROLLA          NOT AVBL
 ***** THE ABOVE OBSERVATIONS ARE NON NWS ARE NOT QUALITY
       CONTROLLED AND MAY MIS-REPORT RAIN FOR SNOW...
$$

  *****  WEATHER ACROSS NORTHERN MINNESOTA  *****

CITY           SKY/WX    TMP DP  RH WIND       PRES   REMARKS
FLAG ISLAND    DRIZZLE   34  34 100 E6        29.71R
WARROAD        LGT RAIN  34  30  86 NE6       29.70R
ROSEAU         LGT RAIN  34  30  86 NE7       29.69R
HALLOCK        LGT RAIN  36  34  93 NE6       29.68R
THF RVR FALLS  CLOUDY    36  36 100 E8        29.65R
6HR MIN TEMP:  36; 6HR MAX TEMP:  36; 6HR PCP:  0.02;

BAUDETTE       CLOUDY    34  33  96 E7        29.68R
6HR MIN TEMP:  34; 6HR MAX TEMP:  35; 6HR PCP:  0.01;

WASKISH        LGT RAIN  36  34  93 CALM      29.68S
CROOKSTON      CLOUDY    36  36 100 E6        29.65R
STEPHEN NDAWN    N/A     34  34 100 NE7         N/A
GREENBUSH NDAW   N/A     34  34 100 NE7         N/A
$$
  *****  WEATHER ACROSS CENTRAL AND WEST MINNESOTA  *****

CITY           SKY/WX    TMP DP  RH WIND       PRES   REMARKS
FOSSTON        CLOUDY    34  34 100 CALM      29.64R
BEMIDJI        LGT RAIN  33  32  97 E7        29.65R
PARK RAPIDS    LGT SNOW  34  32  92 E7        29.62R FOG
6HR MIN TEMP:  34; 6HR MAX TEMP:  37; 6HR PCP:  0.03;

ELBOW LAKE     LGT RAIN  33  32  97 E14       29.56R WCI  23
6HR MIN TEMP:  33; 6HR MAX TEMP:  37;

WADENA         LGT SNOW  34  32  93 E7        29.60R
DETROIT LAKES  LGT RAIN  34  34 100 E8        29.61R
MOORHEAD       CLOUDY    37  37 100 E6        29.61R
FERGUS FALLS   LGT RAIN  36  34  93 E6        29.60R
MORRIS MN      DRIZZLE   36  34  93 E15       29.54R
STAPLES        LGT RAIN  34  32  93 E6        29.61R
$$
  *****  WEATHER ELSEWHERE ACROSS MINNESOTA  *****

CITY           SKY/WX    TMP DP  RH WIND       PRES   REMARKS
DULUTH         LGT SNOW  34  33  96 E13       29.69S VSB 1   WCI  25
6HR MIN TEMP:  33; 6HR MAX TEMP:  34; 6HR PCP:  0.02;

INTRNTL FALLS  LGT RAIN  34  32  92 E5        29.70R
6HR MIN TEMP:  33; 6HR MAX TEMP:  35; 6HR PCP:  0.04;

ELY            CLOUDY    34  32  93 E8        29.72R
CLOQUET        CLOUDY    34  34 100 E6        29.69R FOG
WHEATON        DRIZZLE   32  32 100 E14       29.56R WCI  22
BRAINERD       LGT SNOW  33  32  96 VRB3      29.63S FOG
6HR MIN TEMP:  33; 6HR MAX TEMP:  36; 6HR PCP: TRACE;

HIBBING        CLOUDY    35  32  88 SE9       29.69R FOG
6HR MIN TEMP:  34; 6HR MAX TEMP:  35; 6HR PCP:  0.02;

ALEXANDRIA     CLOUDY    34  32  92 E12       29.56R FOG
6HR MIN TEMP:  33; 6HR MAX TEMP:  36; 6HR PCP:  0.02;

SAINT CLOUD    MIX PCPN  37  33  85 E8        29.60R FOG
6HR MIN TEMP:  36; 6HR MAX TEMP:  38; 6HR PCP:  0.04;

MINNEAPOLIS    LGT RAIN  37  34  89 E10       29.60S FOG
6HR MIN TEMP:  35; 6HR MAX TEMP:  37; 6HR PCP:  0.05;

$$

  *****  WEATHER ACROSS SOUTH DAKOTA  *****

CITY           SKY/WX    TMP DP  RH WIND       PRES   REMARKS
SIOUX FALLS    LGT RAIN  36  34  92 N7        29.43S
6HR MIN TEMP:  36; 6HR MAX TEMP:  40; 6HR PCP:  0.01;

BROOKINGS      NOT AVBL
WATERTOWN      CLOUDY    35  34  96 CALM      29.45R FOG
6HR MIN TEMP:  35; 6HR MAX TEMP:  39; 6HR PCP:  0.02;

HURON          CLOUDY    33  32  96 NW5       29.46R
6HR MIN TEMP:  32; 6HR MAX TEMP:  35; 6HR PCP: TRACE;

SISSETON         N/A     35  35 100 SE15      29.51R
ABERDEEN       LGT RAIN  37  35  92 NE9       29.47R
6HR MIN TEMP:  34; 6HR MAX TEMP:  38; 6HR PCP:  0.04;

MITCHELL       CLOUDY    34  33  96 NW7       29.47R FOG
PIERRE         MIX PCPN  31  28  89 NW22G29   29.52R WCI  18
6HR MIN TEMP:  31; 6HR MAX TEMP:  36; 6HR PCP:  0.01;

MOBRIDGE       LGT SNOW  32  30  92 N20G25    29.53R VSB 1   WCI  20
RAPID CITY     LGT SNOW  31  27  85 NW36G49   29.60R VSB 3/4 WCI  15
6HR MIN TEMP:  30; 6HR MAX TEMP:  45; 6HR PCP: TRACE;

$$

  *****  SOME WEATHER IN NEARBY STATES *****

CITY           SKY/WX    TMP DP  RH WIND       PRES   REMARKS
GLASGOW MT     MIX PCPN  29  22  75 NW21      29.88R WCI  16
6HR MIN TEMP:  29; 6HR MAX TEMP:  33; 6HR PCP: TRACE;

GREAT FALLS MT MOCLDY    35  25  66 NW15      30.03R
6HR MIN TEMP:  35; 6HR MAX TEMP:  42;

CHEYENNE WY    LGT SNOW  25  20  81 NW20G36   29.73R VSB 1   WCI  11
6HR MIN TEMP:  27; 6HR MAX TEMP:  32; 6HR PCP: TRACE;

SCOTTSBLUFF NE PTCLDY    33  24  69 NW20      29.69R WCI  21
6HR MIN TEMP:  32; 6HR MAX TEMP:  41; 6HR PCP: TRACE;

OMAHA NE       LGT RAIN  42  40  92 NW9       29.44S FOG
6HR MIN TEMP:  42; 6HR MAX TEMP:  43; 6HR PCP:  0.25;

DES MOINES IA  LGT RAIN  40  38  93 E7        29.46S FOG
6HR MIN TEMP:  40; 6HR MAX TEMP:  41; 6HR PCP:  0.08;

DAVENPORT IA   FOG       38  36  92 E8        29.56S VSB 3/4
6HR MIN TEMP:  36; 6HR MAX TEMP:  38; 6HR PCP:  0.06;

CHICAGO IL     LGT RAIN  39  37  92 E15       29.67F FOG
6HR MIN TEMP:  35; 6HR MAX TEMP:  39; 6HR PCP:  0.21;

EAU CLAIRE WI  CLOUDY    36  31  82 E13       29.65R
6HR MIN TEMP:  36; 6HR MAX TEMP:  39;

LA CROSSE WI   LGT RAIN  36  33  89 E13       29.62F FOG
6HR MIN TEMP:  37; 6HR MAX TEMP:  41; 6HR PCP:  0.05;

$$

  *****  SOME NATIONAL WEATHER *****

CITY           SKY/WX    TMP DP  RH WIND       PRES   REMARKS
LA GUARDIA NY  CLOUDY    45  39  81 NE10      30.22S
6HR MIN TEMP:  41; 6HR MAX TEMP:  43; 6HR PCP:  0.01;

RALEIGH NC     DRIZZLE   38  35  89 VRB6      30.07F FOG
6HR MIN TEMP:  37; 6HR MAX TEMP:  38; 6HR PCP: TRACE;

ATLANTA GA     HVY RAIN  45  43  93 E9        29.92R FOG
6HR MIN TEMP:  45; 6HR MAX TEMP:  46; 6HR PCP:  0.32;

NEW ORLEANS LA MOCLDY    70  66  87 S15       29.71R
6HR MIN TEMP:  70; 6HR MAX TEMP:  77; 6HR PCP: TRACE;

OKLAHOMA CITY  MOCLDY    53  36  52 NW12      29.63R
6HR MIN TEMP:  51; 6HR MAX TEMP:  58;

ALBUQUERQUE NM MOCLDY    45  36  70 NW20G26   29.73F
6HR MIN TEMP:  45; 6HR MAX TEMP:  61; 6HR PCP:  0.01;

SALT LAKE CITY MOCLDY    42  27  55 NW21G32   30.01R
6HR MIN TEMP:  41; 6HR MAX TEMP:  46; 6HR PCP: TRACE;

LOS ANGELES CA FOG       59  57  94 W6        29.95S VSB 3/4



USA.gov is the U.S. government's official web portal to all federal, state and local government web resources and services.